カタログに戻る

ORBCOMM FM 108

運用中通信LEO
NORAD 41187·PAYLOAD·🇺🇸 United States

打ち上げ Dec 22, 2015 から Cape Canaveral Space Force Station

Loading…

次のパス (今後24時間)

TLE

最新Source: Space-Track

元期: Sep 14, 2026, 01:00 UTC

1 41187U 15081J   26257.04197811  .00000450  00000-0  13121-3 0  9999
2 41187  47.0041 122.0563 0002561 253.1822 106.8783 14.58978907573056

AllMySatでORBCOMM FM 108をリアルタイム追跡

Download on the App Store